Wind_Speed
36 36 36 35 35 34 33 34 35 36 37 38 38 38 37 38 39 39 37 35 35 35 34 32 33 35 36 37 39 39 39 39 39 39 39 39 39 38 35 33 33 34 36 39 40 40 41 40 39 38 37 37 38 39 41 42 42 43 43 44 44 44 44 44 44 44 44 44 44 43 42 41 40 40 39 39 39 38 38 38 38 38 38 37 37 36 37
41 41 40 40 39 39 39 39 40 41 41 41 41 41 41 43 44 44 43 42 42 42 41 37 37 39 40 41 42 42 42 41 41 41 42 42 42 41 39 37 36 37 37 38 40 42 43 43 42 42 40 39 38 39 39 41 42 44 45 46 47 47 47 47 47 47 47 47 47 47 47 47 46 45 45 44 44 43 43 42 41 41 41 41 42 42 42
39 39 39 39 40 42 44 44 45 46 46 45 45 46 45 46 46 47 47 47 47 48 47 44 43 44 45 45 45 46 47 47 47 47 45 44 44 47 48 47 45 44 43 41 41 42 44 45 45 45 44 42 40 39 39 39 40 42 44 46 48 50 50 50 50 50 50 50 50 50 51 51 51 51 50 50 50 50 49 48 47 46 45 45 45 45 44
41 39 38 38 40 42 43 43 44 45 46 46 47 48 48 49 49 49 49 48 49 50 50 49 48 47 46 47 47 47 49 50 51 51 51 50 50 52 53 53 53 52 51 49 47 45 45 46 48 48 45 43 41 41 41 41 40 39 40 42 45 48 51 52 53 53 53 53 53 54 54 55 55 55 55 55 55 54 53 53 52 52 51 50 49 48 47
44 42 39 39 40 40 39 38 38 40 41 43 45 46 47 48 49 49 47 47 48 49 48 48 49 48 48 49 50 50 50 50 51 51 52 53 53 50 49 51 53 54 54 55 54 50 47 46 46 45 44 44 44 44 44 44 42 42 42 43 44 45 48 50 53 54 54 54 55 56 56 57 58 58 58 58 58 58 57 56 55 55 54 53 52 51 49
45 43 41 40 40 40 38 36 36 38 40 41 42 43 43 42 43 44 43 43 44 46 46 47 49 49 50 50 51 51 51 50 49 48 48 49 51 50 50 52 54 54 54 55 55 52 48 46 44 43 44 46 47 47 46 45 44 45 46 46 47 46 46 47 48 50 51 52 52 53 54 55 57 57 58 58 59 59 59 59 58 58 57 55 54 53 51
44 44 44 43 43 43 41 41 41 41 43 42 40 40 41 39 39 41 42 43 44 46 47 49 50 50 51 51 51 51 51 50 49 48 47 47 49 50 51 51 50 52 53 54 54 54 53 52 51 50 50 50 49 47 46 46 47 48 48 48 48 48 48 48 49 49 50 50 50 50 51 53 54 54 55 55 56 56 57 56 57 57 57 57 55 54 53
42 43 43 44 45 44 44 45 45 44 46 45 44 44 45 44 43 44 45 46 47 48 50 50 51 51 52 52 50 48 48 49 48 47 45 45 46 48 49 47 45 45 49 51 52 53 53 53 54 54 54 53 51 49 48 48 50 50 50 50 49 49 50 51 52 53 53 53 52 52 51 51 52 52 52 53 53 53 53 53 54 54 55 55 55 54 53
42 42 43 44 44 44 44 45 45 45 46 47 47 48 48 47 47 47 48 48 48 49 50 50 51 51 52 52 50 48 47 46 46 47 46 45 46 47 48 48 47 47 48 48 50 51 51 51 53 53 52 52 52 52 52 52 53 53 53 53 52 52 52 53 53 54 54 54 54 53 52 51 51 51 51 51 51 51 51 52 53 53 54 54 55 55 54
43 43 44 45 44 44 43 43 44 43 43 44 45 46 46 46 46 46 47 47 47 47 48 48 48 49 50 50 50 51 50 48 47 48 49 48 49 49 50 50 50 50 50 49 50 51 52 54 56 55 53 52 53 54 54 55 56 56 56 55 55 54 54 54 54 55 54 54 53 53 52 52 51 51 51 50 50 51 51 51 52 52 53 54 55 55 55
44 44 46 46 45 42 41 41 41 40 39 41 43 43 43 43 44 44 44 44 45 45 45 46 47 47 48 49 49 49 50 48 47 48 49 50 50 50 51 52 52 52 53 53 54 55 55 57 60 60 57 56 56 55 55 56 56 56 56 56 56 56 55 55 55 54 53 52 52 52 52 52 52 52 51 51 51 51 51 52 52 52 52 53 53 53 54
42 42 43 43 43 42 41 41 40 39 39 40 42 43 44 45 45 46 45 46 46 45 45 46 47 48 49 50 49 49 48 48 47 48 49 50 50 49 49 50 51 52 54 55 57 58 57 58 59 59 58 57 57 57 57 57 56 56 56 56 56 55 54 54 54 53 52 52 51 51 51 51 51 51 51 51 51 52 52 52 53 53 53 53 53 53 53
38 39 40 40 41 41 41 41 41 41 41 41 43 45 46 46 47 47 47 47 47 47 47 47 49 50 51 51 50 49 48 48 49 49 49 49 50 49 49 49 49 51 52 54 55 57 57 58 59 59 58 58 58 57 57 57 56 56 55 55 55 54 53 52 52 51 51 51 51 50 50 50 50 49 49 49 49 50 51 52 52 52 52 52 53 53 53
37 39 40 41 41 41 41 41 42 42 41 41 43 45 45 47 48 48 48 48 48 48 49 49 50 51 51 50 50 50 49 48 49 49 49 49 49 49 49 49 49 49 50 51 52 55 57 58 59 60 60 59 59 58 57 56 56 55 54 54 53 52 52 51 50 50 50 50 49 49 49 48 48 48 48 48 48 48 49 49 49 49 49 50 50 51 51
37 38 39 40 40 41 41 42 43 43 42 44 45 46 47 49 50 50 49 50 50 49 50 50 50 49 48 48 48 48 48 48 48 49 50 50 50 49 49 49 49 49 49 49 50 53 55 57 58 59 59 59 59 58 57 56 55 54 53 53 52 52 51 51 50 50 49 49 49 48 48 47 47 47 47 47 47 47 47 47 47 46 45 46 46 47 47
39 39 39 39 40 43 43 42 44 46 47 48 50 50 49 51 52 51 50 50 50 49 49 49 49 49 48 48 48 49 50 51 51 51 52 52 52 51 50 50 50 50 51 51 51 51 52 53 55 57 57 58 58 57 57 56 55 54 53 52 52 52 53 53 52 51 50 49 48 48 48 47 47 47 47 47 47 46 46 46 45 44 44 44 45 45 44
40 39 40 41 43 45 45 44 47 48 49 50 51 51 50 51 51 51 50 49 49 49 50 50 51 52 52 52 52 52 52 52 52 53 53 53 53 53 53 52 52 52 53 53 52 52 52 52 53 55 56 56 56 55 55 54 54 53 53 53 53 54 54 53 52 51 50 49 48 47 47 47 46 45 45 45 45 46 46 46 45 44 44 44 44 44 44
40 40 42 43 45 46 46 45 46 47 48 49 50 50 51 51 51 51 51 51 52 53 54 55 55 56 57 56 56 55 54 53 53 53 53 53 53 53 53 53 53 54 54 53 53 53 53 53 54 54 55 55 55 53 51 51 51 52 53 54 54 53 53 52 52 51 50 49 47 46 45 44 44 44 44 45 45 45 46 46 45 44 43 43 43 43 43
39 40 43 43 43 44 44 43 44 46 47 49 50 51 52 53 53 53 54 54 55 55 56 56 57 57 57 58 57 56 55 54 54 53 53 53 53 53 52 53 53 54 54 53 53 53 54 54 54 54 54 53 52 51 49 49 50 52 53 53 53 52 51 50 50 49 48 47 45 44 44 43 43 43 44 44 44 44 45 45 44 43 43 42 42 41 41
35 38 41 41 40 41 42 42 44 45 46 47 49 51 52 53 53 54 54 54 54 54 54 54 54 54 55 55 55 55 55 54 54 53 52 52 53 52 52 52 53 54 54 54 54 54 54 54 54 53 52 50 49 49 49 50 51 51 51 51 51 51 50 49 48 47 46 44 44 43 43 43 43 43 43 43 43 43 43 43 43 42 42 41 41 40 40
33 36 37 37 37 39 41 42 43 44 45 46 47 49 50 52 53 54 54 53 53 53 54 54 54 53 53 54 54 53 53 53 53 53 53 53 52 52 52 52 53 54 54 55 55 55 54 54 53 53 52 51 50 50 50 51 51 51 50 50 50 50 49 48 47 46 44 43 43 42 42 42 43 42 42 42 42 42 42 42 42 42 41 41 41 41 41
32 33 34 35 36 38 39 41 42 43 44 45 45 46 48 50 51 52 53 53 53 54 54 54 54 54 54 54 54 54 54 54 54 54 54 53 53 53 53 53 53 54 54 55 55 54 53 53 53 53 53 52 51 51 51 51 50 50 50 50 50 49 49 48 47 45 44 43 42 42 41 41 41 41 41 41 41 41 41 41 41 41 41 41 41 41 41
30 31 33 35 37 38 39 40 41 42 43 44 45 46 47 48 49 50 50 51 51 51 52 52 53 53 53 53 53 53 54 54 54 54 54 53 53 53 53 53 53 53 54 54 53 52 52 53 54 53 53 53 52 52 52 51 50 50 50 49 49 49 48 47 46 45 44 42 41 41 40 39 39 40 40 40 39 39 40 40 40 40 40 40 41 41 41
30 32 34 35 37 38 39 40 41 43 44 44 45 46 46 47 47 46 46 46 47 47 47 47 47 48 49 49 50 50 50 50 50 50 50 50 50 50 49 50 50 51 52 53 51 50 50 51 52 51 51 50 51 53 52 51 50 50 49 49 49 48 47 46 45 44 43 41 40 39 39 38 38 38 38 39 39 39 39 39 39 39 40 40 41 41 41
30 31 33 35 36 38 38 39 40 41 42 42 43 42 42 41 40 39 38 39 39 39 39 38 38 40 40 40 41 42 42 41 42 42 43 43 43 44 44 44 45 46 48 48 47 46 46 46 46 45 43 43 46 49 49 48 48 48 48 48 48 46 45 44 43 43 42 40 39 38 37 37 37 37 37 38 38 38 38 38 39 40 40 41 41 41 41
29 30 31 33 35 36 37 37 37 37 38 37 36 34 32 30 28 27 28 28 29 29 29 30 30 30 31 31 32 32 32 32 33 34 35 35 35 37 38 38 39 40 41 41 41 41 40 41 41 40 39 40 43 45 44 44 45 46 46 46 46 45 44 42 41 41 40 39 37 36 35 34 35 35 36 37 38 38 38 37 37 37 38 37 37 36 36
29 30 31 31 32 33 34 33 32 31 29 27 25 23 21 20 19 20 22 23 24 25 26 27 27 27 28 28 28 28 29 29 30 30 30 30 31 32 32 31 32 33 33 33 33 33 33 34 36 37 38 41 42 42 41 41 42 42 42 42 42 42 42 41 40 39 38 37 35 33 32 32 33 34 36 36 35 34 32 31 30 30 30 29 28 27 26
28 29 30 30 29 28 27 26 25 23 21 20 20 18 16 16 18 20 21 23 24 25 26 27 28 28 28 29 28 28 28 29 29 30 30 30 30 30 29 29 28 28 27 27 28 29 30 31 32 33 36 39 39 38 38 38 38 38 37 37 36 36 35 36 36 35 34 32 31 30 30 30 30 30 30 30 28 26 24 23 21 21 20 19 19 18 17
27 27 27 27 25 23 20 18 17 17 17 18 19 18 17 17 19 21 23 24 25 27 28 29 29 29 30 29 29 29 29 30 31 32 31 31 31 31 30 30 28 27 26 25 26 27 29 30 31 33 35 37 37 36 36 35 34 33 32 30 30 30 30 30 30 28 27 26 25 24 23 22 21 22 23 23 21 19 18 16 14 14 14 15 14 12 13
24 24 24 22 20 17 14 12 13 14 15 17 18 18 19 19 21 22 24 25 26 26 27 28 28 29 30 30 31 31 31 31 31 31 31 31 30 30 29 28 27 27 26 25 24 25 24 24 26 28 30 31 32 32 31 29 27 25 24 23 22 21 21 21 19 17 17 17 17 16 15 15 16 17 17 16 16 16 14 13 12 12 13 12 11 10 12
20 20 19 15 12 11 10 11 12 14 15 16 18 18 19 20 21 22 24 24 25 26 27 27 28 28 28 28 29 29 30 30 29 29 28 28 28 28 28 26 25 24 24 23 24 24 22 21 21 20 19 20 22 23 21 19 17 16 16 15 13 12 13 12 10 9 11 12 13 13 14 15 15 13 10 10 13 14 13 13 13 12 12 11 11 12 13
16 15 12 9 8 8 9 11 12 14 15 17 18 18 19 20 21 22 23 23 24 25 25 24 22 21 21 22 24 26 27 27 27 27 26 26 25 26 26 25 24 22 21 21 21 21 21 20 17 14 12 13 14 14 12 12 12 11 10 9 9 10 12 11 9 7 8 10 11 12 14 15 13 9 7 8 10 11 11 12 11 11 12 12 13 13 14
11 9 7 7 7 8 10 12 13 14 15 16 17 18 19 19 20 20 20 20 19 19 17 15 14 15 16 19 21 22 21 20 19 20 20 20 20 20 21 21 20 18 16 16 17 17 16 15 12 10 11 11 11 11 11 11 9 6 5 5 6 8 11 12 8 5 6 9 10 10 11 11 10 7 7 6 7 8 9 11 11 12 12 13 13 13 13
8 6 6 8 9 11 13 14 15 15 15 16 17 18 18 19 19 17 15 14 14 13 12 12 13 14 16 18 17 14 11 10 9 9 8 8 9 9 9 10 11 11 11 11 11 11 10 10 10 11 12 12 13 13 11 7 4 3 1 1 3 5 8 10 8 5 5 7 8 9 9 9 8 8 8 8 9 10 12 13 13 13 13 12 13 13 15
6 6 7 9 11 13 15 15 15 16 16 16 17 17 17 18 16 12 10 11 11 9 10 13 13 13 15 16 14 11 11 12 11 9 8 6 4 1 3 6 8 8 7 7 8 9 11 13 14 15 15 14 12 9 6 4 2 1 1 2 3 4 5 7 8 8 7 7 7 7 7 8 9 9 9 9 9 10 11 12 12 12 12 13 15 16 18
6 7 8 11 13 14 15 15 15 15 15 14 14 14 15 15 12 8 8 10 9 8 12 14 13 13 15 16 13 11 14 15 14 13 13 13 11 10 10 10 10 10 10 11 12 13 15 16 16 15 13 11 9 7 5 4 2 1 1 2 3 4 5 6 7 9 10 10 8 7 7 7 8 9 9 9 9 10 10 11 12 13 15 17 18 18 17
7 9 11 12 13 13 14 14 13 13 12 11 12 12 13 12 9 8 9 10 10 11 14 15 13 13 16 18 16 15 16 18 17 17 18 19 18 18 17 17 16 16 16 16 15 15 15 15 14 12 11 10 8 7 5 2 1 1 0 1 2 3 4 4 5 7 8 8 8 8 7 7 7 8 8 8 9 10 11 13 16 18 19 18 17 16 15
9 11 12 12 12 11 11 10 10 10 10 10 10 11 11 10 9 8 10 12 13 14 15 14 13 14 17 20 20 19 18 18 18 18 19 19 19 19 18 18 17 17 17 17 16 15 14 13 12 12 11 10 8 6 3 1 0 1 2 3 4 4 5 5 5 5 5 6 7 7 7 7 7 8 8 10 11 13 15 17 18 18 17 15 14 14 13
10 11 11 10 9 10 10 9 9 9 9 9 9 10 10 9 9 9 10 11 11 12 12 12 12 13 16 20 22 22 21 20 19 17 16 16 15 15 15 15 15 15 14 14 13 13 14 14 14 14 13 11 8 5 4 4 6 6 6 6 6 6 7 7 6 5 4 5 6 7 8 8 9 10 11 13 14 16 17 17 16 15 14 13 13 12 11
9 9 9 9 9 10 10 9 9 9 9 8 8 8 8 8 8 7 8 8 7 6 7 8 9 10 14 17 20 22 23 24 24 23 21 19 17 16 15 15 15 15 16 15 15 15 16 16 15 14 12 9 6 6 8 10 10 9 8 7 6 6 7 7 6 5 5 5 7 8 10 11 12 12 13 14 15 15 15 14 13 13 12 11 11 11 10
8 8 8 9 9 9 8 7 8 9 7 6 6 7 7 6 6 5 5 5 4 3 4 5 5 6 10 13 15 17 20 23 25 27 27 25 23 22 21 20 20 20 20 19 18 17 16 15 13 12 9 7 7 7 8 9 9 9 9 8 7 6 6 5 5 6 6 7 8 9 11 12 12 13 13 13 13 13 13 12 11 11 10 10 10 10 10
8 8 8 8 8 7 6 7 8 6 4 4 6 6 5 4 4 3 3 3 5 6 8 9 8 8 9 11 12 13 15 17 20 23 24 23 22 21 20 20 20 20 19 17 16 15 13 13 12 10 8 7 7 6 5 5 7 9 10 10 9 7 6 6 5 6 6 7 9 10 10 11 11 12 12 12 12 12 11 11 10 10 10 10 10 10 10
8 8 7 7 7 6 5 6 5 2 3 5 5 5 3 2 1 2 4 5 8 11 13 14 13 12 11 12 12 11 11 13 15 16 17 18 18 17 16 15 14 14 14 13 12 12 11 10 9 7 6 6 6 5 2 3 5 7 8 8 8 7 6 5 5 5 5 6 7 8 9 9 9 10 10 11 11 11 11 10 10 10 10 10 10 10 10
9 9 7 6 6 6 5 4 3 0 3 5 5 3 1 1 2 4 6 8 10 13 15 16 16 15 14 15 14 13 11 11 11 12 12 13 13 13 12 10 9 9 9 9 9 9 8 7 5 4 4 4 5 4 4 2 1 2 4 4 4 4 4 4 4 4 5 5 5 6 7 7 8 9 10 10 10 11 11 11 11 11 11 11 11 11 11
11 10 9 7 7 7 5 3 1 1 4 5 4 3 1 2 3 5 6 8 10 12 13 15 15 15 15 16 15 15 13 12 11 11 10 10 9 8 8 7 7 7 7 7 7 8 8 8 7 6 6 5 4 4 4 4 3 2 2 1 1 1 1 2 3 4 4 5 5 6 7 7 8 9 9 10 10 11 11 12 12 12 13 13 13 13 13
13 12 11 10 9 9 8 5 1 2 3 4 3 3 2 2 3 5 7 8 9 10 11 12 12 13 14 15 15 14 14 14 13 13 12 11 9 8 6 5 4 5 5 6 6 7 7 7 7 7 6 5 5 5 5 5 6 5 5 4 5 5 5 4 4 4 5 5 6 7 7 7 8 8 9 10 11 12 12 13 14 14 14 15 15 15 15
15 14 14 14 13 12 11 9 6 3 2 1 0 1 2 2 2 4 6 6 6 7 7 8 9 10 11 12 12 12 13 13 13 13 13 13 12 11 9 8 7 5 3 2 1 2 4 5 6 7 8 8 9 9 9 9 10 10 9 8 8 8 8 8 9 9 9 9 9 9 9 9 9 9 10 11 13 14 15 15 16 16 17 17 17 18 18
17 17 17 17 16 15 13 12 11 8 6 5 4 4 4 3 3 2 2 2 1 2 3 3 4 5 6 8 8 9 10 10 10 10 10 10 10 10 10 10 9 9 8 7 6 5 4 3 2 3 4 5 6 7 8 9 10 11 11 11 11 10 10 9 10 10 10 11 11 12 12 12 12 12 13 13 14 15 16 17 18 18 19 19 20 20 20
18 19 19 19 19 18 17 16 15 13 11 9 8 8 7 7 6 6 5 4 3 3 2 1 0 1 2 3 4 5 6 7 7 8 8 9 9 9 9 9 9 9 8 8 7 7 7 7 6 6 6 6 6 6 7 7 8 8 8 8 8 8 8 8 9 9 9 10 11 11 12 13 13 14 14 15 15 16 17 18 19 19 20 20 21 21 21
17 20 21 22 21 21 20 19 18 17 15 14 12 11 11 10 9 9 9 8 7 6 6 5 5 4 2 1 1 2 2 3 4 5 7 8 8 9 10 11 11 12 11 11 10 9 9 8 8 9 9 9 10 10 10 10 10 9 9 9 8 8 9 9 9 10 11 11 11 12 13 13 14 14 15 15 16 17 17 18 19 20 20 21 21 21 21
15 19 22 24 24 24 23 22 21 20 18 17 16 15 14 13 12 11 11 11 10 10 10 9 9 8 7 6 5 4 4 4 4 5 6 7 8 9 10 12 13 14 15 15 16 15 15 15 14 14 13 13 13 13 13 13 14 14 14 14 14 14 14 14 14 14 14 15 15 15 16 16 16 17 17 17 17 18 18 19 19 20 21 21 22 22 22
15 17 21 25 26 26 25 25 23 20 20 20 20 18 17 16 15 14 14 13 13 12 12 12 12 12 11 10 9 8 8 8 8 8 8 8 9 10 11 12 13 15 16 17 19 19 20 20 20 20 20 20 19 19 18 18 18 18 18 19 19 20 20 20 20 20 21 20 21 21 21 21 21 21 21 21 22 22 22 22 22 22 22 23 23 24 24
Wind_Direction
260 260 259 256 254 253 251 251 253 255 257 259 262 265 265 265 266 265 263 263 264 261 259 260 262 265 266 265 265 266 267 269 270 271 273 276 278 276 271 267 268 270 272 273 274 273 273 271 268 265 264 264 265 266 268 269 268 267 266 265 266 266 266 266 266 267 269 271 271 272 272 272 271 270 271 270 270 268 267 266 265 265 268 270 269 267 270
263 262 262 263 262 259 256 254 254 254 256 258 260 261 261 263 266 267 266 266 266 264 261 258 259 263 266 267 269 269 269 270 271 271 274 276 275 271 266 264 264 267 269 271 273 274 274 272 270 268 267 265 265 265 265 266 265 264 263 263 264 264 264 265 265 266 267 268 270 271 272 273 273 272 272 272 273 273 272 271 270 269 269 270 272 273 273
265 265 265 265 263 261 259 257 255 255 256 257 260 261 261 262 264 266 267 267 267 265 263 262 262 262 265 266 267 267 268 269 270 271 272 271 269 267 265 264 264 265 265 265 267 269 269 270 270 270 269 269 269 267 266 265 262 261 261 262 263 263 262 262 263 264 265 266 267 269 270 271 272 273 273 274 274 274 275 276 275 274 273 273 273 274 274
267 268 268 266 264 264 264 262 260 259 259 259 260 261 262 262 262 263 265 266 266 264 264 265 265 263 264 264 262 262 264 267 270 271 271 269 269 269 268 266 265 265 264 264 264 264 264 266 269 270 271 272 270 268 267 266 263 261 262 264 265 264 263 262 261 262 263 264 265 267 268 269 270 272 273 273 274 274 275 276 276 276 276 276 275 275 275
269 268 266 265 265 265 265 264 262 261 260 260 259 260 260 261 261 262 264 266 266 267 268 268 267 264 263 262 262 262 263 265 269 271 271 270 269 268 268 267 267 266 266 266 265 264 264 265 267 269 270 270 269 267 266 265 264 263 264 266 267 267 266 264 263 262 263 264 265 266 267 268 269 270 271 272 272 273 274 274 274 274 275 275 276 277 277
265 265 263 263 262 261 261 261 261 262 261 259 259 259 259 260 262 262 264 266 268 269 269 268 267 265 263 263 264 265 266 268 269 269 268 268 268 267 265 266 268 268 267 267 267 265 263 262 263 265 268 268 267 266 266 266 266 265 266 267 267 268 267 267 266 265 266 267 267 268 269 269 269 270 270 271 271 272 272 273 273 273 273 274 275 276 276
264 264 262 261 260 260 260 260 260 260 261 260 258 258 259 260 262 264 264 266 268 269 269 268 268 267 266 266 267 268 269 269 269 268 267 265 265 265 264 265 266 267 266 266 266 266 264 263 262 263 264 264 264 264 265 266 266 267 268 268 267 266 265 265 266 267 269 269 269 271 271 270 270 270 270 270 270 271 271 272 272 272 273 273 274 274 275
263 264 264 262 261 261 261 261 260 259 260 260 260 261 262 263 263 263 263 265 267 269 269 269 269 270 270 269 270 271 271 270 269 268 266 264 262 263 263 263 263 263 265 265 265 266 266 264 262 261 261 261 261 262 263 265 265 267 268 267 266 265 265 264 265 266 267 268 269 271 272 271 270 270 269 269 270 270 271 271 271 272 272 272 272 273 274
265 266 265 264 262 262 262 262 262 262 263 264 264 265 265 264 263 262 262 262 264 265 267 267 267 268 269 269 269 269 268 267 267 266 264 262 262 262 262 261 259 260 262 263 263 264 263 263 262 261 260 261 261 262 263 265 265 266 267 267 266 266 265 265 264 265 266 267 268 269 269 268 268 268 268 268 268 268 269 269 269 270 271 270 271 272 273
266 267 266 265 264 265 265 264 264 264 265 266 266 266 266 264 263 262 261 260 261 262 264 266 266 266 266 266 267 267 267 265 264 263 262 262 261 259 258 258 257 258 259 259 259 259 260 261 262 263 263 263 264 264 265 266 267 267 267 267 266 266 266 266 265 266 266 267 267 267 266 266 266 265 265 265 266 266 266 266 266 267 267 268 269 271 273
263 264 265 267 267 267 267 266 265 264 264 265 265 265 265 263 263 262 261 261 262 262 263 264 264 264 264 265 266 267 267 266 264 262 263 262 260 259 257 256 255 256 257 256 256 258 260 261 262 265 266 266 267 267 267 267 267 267 267 267 266 267 267 267 267 267 268 268 267 266 266 265 265 264 264 265 265 265 265 265 265 266 266 267 268 269 271
261 261 263 265 267 266 265 264 263 262 261 263 264 264 265 265 265 265 265 266 266 265 264 263 263 263 264 265 266 265 265 265 264 263 263 262 261 260 259 258 256 255 256 257 258 259 260 261 262 264 265 265 265 266 266 266 266 266 267 267 267 268 268 268 268 268 268 268 267 266 266 265 265 265 264 264 265 266 266 266 266 266 266 267 267 268 269
257 259 261 262 264 264 265 265 264 264 263 263 263 265 266 267 267 268 268 268 268 268 267 266 265 266 266 265 265 264 263 264 265 264 264 263 262 261 261 260 259 258 258 258 259 260 260 260 260 261 261 262 263 263 264 265 266 266 267 267 267 268 269 269 269 269 268 268 267 267 267 266 266 265 265 265 265 265 266 266 267 267 267 267 268 268 268
254 257 259 260 262 264 265 266 266 267 267 266 266 267 268 268 268 268 269 268 268 268 268 268 267 267 267 267 267 266 265 265 265 265 264 264 264 264 263 262 261 260 259 258 258 258 259 259 260 260 261 262 263 263 264 264 265 266 266 266 267 268 269 269 269 268 268 268 268 268 268 267 267 267 267 266 266 265 265 266 266 267 268 269 269 269 269
254 256 257 258 261 262 263 264 266 267 266 266 266 266 266 267 267 268 269 269 270 270 270 269 269 268 268 268 269 269 268 268 267 266 266 265 265 265 265 265 263 262 261 259 258 258 259 259 260 261 262 262 262 263 264 264 265 266 266 267 267 268 268 268 267 266 267 268 268 269 269 269 269 268 268 267 267 267 267 267 266 266 266 267 267 268 269
256 256 258 260 261 261 262 264 265 265 264 265 266 265 265 266 268 270 271 271 272 272 272 272 271 270 268 267 267 268 268 268 268 267 267 266 266 265 265 265 264 263 263 263 262 262 261 261 261 262 262 262 262 263 264 265 266 267 267 268 268 268 267 266 266 267 267 267 268 268 268 269 268 268 269 269 269 269 269 268 267 266 266 266 266 267 268
257 258 261 262 263 264 264 264 264 265 266 266 267 267 267 267 270 272 273 273 274 274 273 272 271 269 268 267 267 267 267 267 267 267 267 267 266 266 265 265 264 263 262 262 262 262 261 260 260 260 260 261 261 262 263 265 266 267 266 266 265 265 266 267 268 268 267 267 266 265 266 266 267 268 268 269 269 269 269 269 268 267 267 267 267 267 268
260 261 261 262 264 267 267 266 265 266 266 267 267 268 268 268 269 270 271 271 271 271 270 270 270 270 270 270 270 269 268 268 267 267 267 267 267 266 266 266 265 264 263 262 262 261 261 260 260 259 260 260 261 261 262 263 264 264 264 263 263 263 265 266 267 267 267 267 267 266 266 266 266 267 267 267 267 268 268 269 269 268 267 266 267 267 267
263 264 264 265 267 268 268 267 267 267 267 269 270 271 270 270 270 270 269 269 269 269 270 270 270 270 271 272 272 271 270 269 268 267 267 266 266 265 265 264 264 264 264 264 263 262 261 261 261 261 261 262 263 264 264 263 262 261 261 261 262 263 263 264 265 266 266 267 267 267 266 265 265 265 265 265 266 266 267 268 268 268 267 266 266 266 266
265 264 265 267 268 268 268 269 268 268 268 269 269 269 270 272 272 272 272 272 271 271 271 271 270 270 270 271 271 271 271 270 269 268 267 266 265 264 263 263 263 263 263 263 262 262 262 262 263 263 263 264 264 264 264 262 261 260 261 262 263 263 264 264 264 265 266 266 266 266 265 264 263 263 264 265 265 265 266 266 267 267 266 266 266 266 265
266 265 267 269 269 269 270 270 269 269 268 268 268 269 270 271 272 272 273 273 273 273 273 273 273 273 272 272 272 271 271 270 270 269 268 266 265 264 264 263 262 262 262 262 262 263 263 263 264 264 264 263 262 261 261 261 262 262 263 263 264 265 265 265 265 266 266 265 265 264 264 263 263 263 264 264 264 264 264 265 265 265 265 265 266 265 265
270 271 273 274 272 271 270 270 270 270 270 270 271 270 269 270 270 272 273 273 274 274 274 274 274 274 273 272 272 271 271 270 269 269 268 267 266 266 265 264 263 262 262 262 262 263 263 264 264 264 263 263 263 262 261 262 262 263 263 264 265 266 266 267 267 267 266 265 265 265 264 264 264 264 264 263 263 263 263 263 264 264 264 264 264 264 264
279 277 276 274 273 273 273 273 273 273 274 274 274 273 273 273 273 273 275 275 275 274 274 274 274 273 272 272 271 270 270 269 268 268 268 268 267 266 266 265 264 263 262 262 262 262 262 262 262 262 263 263 263 263 262 262 262 263 264 264 264 265 265 266 266 266 266 266 266 266 266 265 264 264 263 263 263 262 262 262 262 262 263 262 262 262 262
280 278 277 277 277 278 278 277 277 277 277 277 277 277 277 277 278 278 279 278 277 276 276 276 274 273 273 272 271 270 270 269 269 269 268 267 266 265 265 264 264 263 263 263 262 261 260 260 260 261 262 262 262 262 262 262 263 263 263 264 264 264 264 265 265 266 266 266 266 266 266 265 264 263 263 263 263 262 262 262 262 263 263 263 263 263 263
279 279 280 281 281 280 280 280 280 280 280 280 280 280 281 281 282 281 280 280 279 279 279 278 276 276 276 276 275 274 274 273 272 270 269 268 267 266 265 264 263 263 263 263 263 261 260 259 259 258 258 258 259 260 261 262 262 262 263 263 264 264 264 264 265 265 266 265 265 266 266 265 264 263 263 263 262 262 262 262 263 263 263 263 263 263 262
284 284 283 283 283 283 283 283 283 282 283 284 284 284 285 284 283 281 280 281 281 282 282 281 281 282 281 280 279 279 278 276 275 273 271 270 268 267 267 266 265 265 265 264 263 260 258 256 255 253 251 251 255 257 260 261 261 261 262 263 264 263 263 264 265 265 265 264 265 265 265 264 262 261 261 260 261 261 262 262 263 262 262 262 261 260 260
290 289 288 286 285 285 286 287 287 286 286 286 287 287 286 286 285 285 286 287 287 287 287 287 287 286 284 283 282 282 280 279 277 275 273 271 269 269 268 268 268 269 268 266 261 257 254 253 252 248 246 248 252 256 258 260 261 262 263 264 264 263 264 264 265 265 264 263 263 263 262 260 259 259 259 259 261 262 262 261 259 259 259 257 254 252 250
294 293 292 290 289 289 289 287 286 286 287 289 290 291 291 291 291 292 293 293 293 293 293 292 290 289 287 286 285 283 282 280 279 277 276 274 272 271 270 269 269 270 269 266 260 256 255 254 252 248 246 246 250 254 258 260 261 262 263 263 264 265 266 265 264 263 262 260 259 258 257 256 256 257 258 260 260 258 254 252 251 250 247 241 235 231 229
297 295 294 294 294 292 288 282 280 283 286 287 288 291 294 294 295 296 297 297 297 297 295 294 293 292 291 290 288 285 283 280 279 278 277 275 273 271 269 268 267 266 265 264 261 259 259 258 255 251 248 248 251 255 259 260 260 259 259 263 265 265 262 260 259 257 255 253 251 249 249 248 248 251 255 256 252 242 234 234 235 230 224 219 215 212 213
299 296 296 295 292 288 284 281 282 284 284 283 285 290 294 296 298 299 300 300 300 299 297 295 293 292 292 291 289 287 284 281 278 276 275 274 272 270 268 266 265 263 262 261 259 259 260 259 255 253 251 251 253 255 255 255 253 252 255 258 259 256 256 255 251 247 244 239 234 232 231 227 230 240 247 243 228 215 212 216 218 212 209 211 212 211 208
300 299 298 295 285 278 282 287 287 286 285 285 286 290 294 298 301 302 303 305 305 303 301 298 296 294 293 291 290 287 285 282 279 275 272 269 268 266 265 264 262 262 261 258 256 255 255 253 253 254 251 247 247 247 244 241 239 240 243 241 236 237 242 238 225 218 220 217 213 212 209 208 214 224 221 200 191 191 196 202 203 202 206 214 216 213 207
303 300 298 291 278 276 287 294 293 291 289 286 287 292 297 302 305 307 309 311 311 309 307 305 306 307 305 301 298 294 290 286 283 278 273 269 266 263 261 259 257 256 256 254 252 251 250 250 251 249 239 233 234 231 221 212 212 214 209 196 191 201 204 194 183 187 196 193 192 195 194 197 204 208 188 167 167 174 183 193 203 212 218 216 210 204 199
307 298 290 287 286 289 298 303 302 298 293 290 292 298 303 307 310 312 314 317 318 317 317 324 335 339 330 319 312 307 303 299 295 289 282 275 268 265 261 255 248 245 246 249 250 248 246 243 237 225 214 209 200 186 177 178 180 176 163 154 162 172 167 158 156 168 173 166 168 176 181 187 196 201 197 192 191 193 202 214 220 218 209 200 196 196 197
305 284 275 284 293 302 308 310 308 305 301 300 303 305 308 313 315 316 320 327 327 327 337 351 0 358 346 334 329 330 337 344 343 335 321 302 286 275 260 240 226 224 231 239 239 233 222 210 197 186 177 168 159 154 153 154 146 120 98 189 187 164 149 145 149 161 163 158 161 171 182 193 201 204 208 212 211 209 213 216 212 204 198 196 197 196 192
298 278 276 285 296 305 310 310 309 308 306 306 308 309 312 317 319 320 331 338 336 345 7 14 12 7 360 354 357 16 36 39 38 40 40 34 29 61 145 164 175 187 198 196 187 180 173 166 162 159 153 145 139 135 133 135 135 126 209 213 195 176 163 159 163 171 180 185 186 192 203 214 221 224 225 221 213 208 207 206 203 201 198 194 187 182 178
295 290 292 297 304 310 311 309 308 307 305 307 312 315 318 323 326 326 333 338 344 9 25 23 18 17 18 18 24 45 59 59 58 62 64 65 71 86 101 114 126 134 139 143 147 150 149 145 142 138 133 125 118 117 125 144 164 177 169 167 164 163 166 169 171 175 183 192 201 212 221 226 229 231 229 224 218 214 210 205 199 192 185 178 173 171 173
302 307 308 308 310 311 310 308 307 307 307 313 322 326 329 336 341 335 334 344 3 21 24 24 26 29 33 39 48 62 73 72 69 72 76 76 77 85 93 100 108 115 118 121 124 126 127 124 119 111 106 103 105 111 122 147 205 243 205 102 107 123 142 154 162 168 174 182 194 202 207 209 211 213 214 212 212 209 202 191 182 176 172 169 169 173 178
306 312 310 307 308 312 314 312 312 314 318 322 328 334 341 352 2 358 353 359 9 12 13 21 34 40 43 48 55 68 82 84 78 76 79 80 82 87 93 97 102 106 109 112 112 110 107 105 101 97 92 92 99 111 126 155 210 52 47 54 71 92 108 119 131 144 158 171 179 183 183 183 185 189 194 195 193 187 179 172 169 167 168 169 174 181 187
306 308 305 306 313 319 320 319 318 320 323 326 333 342 353 5 12 10 4 3 3 1 3 13 29 43 50 52 54 63 80 89 89 84 82 83 86 91 94 98 100 102 105 110 110 104 98 94 93 93 92 95 104 108 81 44 38 44 51 62 77 91 100 105 109 118 139 159 167 167 167 168 171 173 175 175 172 169 166 165 166 169 172 177 184 191 196
301 305 308 316 321 317 313 317 326 327 325 329 341 354 5 12 11 7 4 3 0 359 3 11 22 42 56 57 55 59 69 80 86 86 84 82 84 88 95 102 103 99 96 98 99 98 97 96 96 96 98 102 101 80 59 51 49 48 50 60 76 90 99 105 110 121 144 163 167 164 162 163 163 164 165 165 165 164 166 169 174 178 182 188 197 203 206
293 303 314 322 319 310 309 324 334 331 328 344 9 18 18 12 5 3 9 18 28 48 55 50 48 61 72 71 65 62 66 74 80 83 83 83 83 85 89 93 95 94 94 96 99 101 102 103 101 100 102 103 94 73 59 59 67 72 73 76 86 97 106 112 118 130 148 161 165 163 161 162 163 164 166 168 170 171 173 177 183 190 197 205 211 215 218
281 295 310 317 316 315 324 331 329 325 342 34 43 36 23 6 358 10 43 70 84 91 92 90 92 98 100 93 84 78 77 79 82 86 89 91 91 91 91 92 95 98 101 103 105 108 111 110 107 104 108 111 107 92 59 47 67 83 88 89 91 96 105 114 120 129 143 157 165 167 166 168 171 171 172 174 178 181 185 189 196 205 212 218 222 225 228
267 280 296 307 311 318 327 322 312 319 64 70 58 42 28 16 36 84 100 102 99 96 93 92 93 97 101 101 97 95 95 94 94 97 100 103 104 104 103 102 103 105 105 103 105 112 120 120 112 105 108 119 125 121 98 53 65 80 87 89 90 94 101 112 124 133 141 156 168 174 176 180 184 185 184 185 189 194 199 203 209 215 221 226 229 233 237
254 263 274 285 291 296 298 290 276 277 84 80 72 59 50 114 118 108 100 98 97 95 91 88 88 90 91 91 92 94 99 103 107 113 118 121 121 122 124 124 124 122 118 114 117 129 142 148 142 132 137 148 151 156 168 177 138 94 84 82 88 96 106 120 143 159 165 172 179 184 187 194 200 202 200 200 202 207 213 218 222 226 231 234 237 240 243
243 249 252 255 261 264 262 257 257 97 100 98 91 94 136 153 131 114 104 99 98 95 90 87 87 87 85 83 83 84 86 90 97 104 113 117 121 129 141 147 148 147 145 143 145 156 167 174 175 173 174 178 178 179 189 203 212 213 219 258 284 262 181 165 171 179 186 193 198 202 204 208 215 218 220 222 223 225 229 232 234 237 239 242 244 245 248
237 239 239 240 243 245 241 236 222 108 112 109 97 105 138 147 132 123 117 106 97 92 88 85 85 85 83 80 79 77 76 76 77 78 80 80 82 92 110 124 133 145 159 171 179 185 190 196 202 208 220 238 254 261 261 263 266 268 267 270 277 278 273 260 245 233 226 222 220 219 218 219 223 227 232 237 240 243 245 247 248 249 250 250 249 250 251
232 235 234 233 234 236 235 233 229 211 187 188 198 169 173 170 142 131 125 113 98 89 81 77 77 79 77 75 74 72 70 68 66 65 64 62 60 62 65 65 62 68 84 111 156 194 210 221 230 239 248 258 266 270 271 273 275 277 278 278 281 282 280 274 267 261 256 249 243 239 238 237 236 236 237 240 244 246 248 250 252 254 255 256 256 256 255
229 231 233 232 231 231 233 235 235 232 227 232 240 234 225 228 228 203 180 160 131 107 84 71 74 76 72 66 64 64 62 60 57 55 53 51 48 45 45 45 45 44 44 42 36 27 15 359 328 297 284 278 275 273 272 272 274 277 280 283 285 286 283 277 272 267 263 260 257 254 251 250 249 248 247 247 248 249 250 251 252 253 254 256 257 257 257
228 227 230 233 233 233 233 235 238 238 236 237 240 240 239 240 242 239 239 241 240 231 230 238 229 108 76 64 54 47 45 45 41 36 31 28 26 22 19 17 16 16 16 16 13 9 4 359 354 348 340 331 321 311 302 293 288 286 284 285 285 284 282 279 277 273 269 266 265 263 261 259 258 257 255 254 253 253 254 254 255 255 256 257 258 258 259
234 227 227 230 233 234 234 235 239 241 241 241 243 246 247 248 248 246 246 247 246 242 238 235 235 238 243 260 343 355 1 8 11 9 5 2 2 1 359 356 353 350 347 343 340 337 333 330 328 326 324 322 319 317 313 309 304 299 295 291 288 285 282 280 279 278 276 274 273 272 271 270 268 266 264 263 261 259 258 257 257 258 259 260 260 261 261
246 233 228 229 232 235 236 237 239 242 245 246 246 248 252 254 253 252 252 252 252 251 249 244 240 241 244 250 260 274 287 301 314 324 329 333 337 339 340 339 338 337 335 333 330 327 323 319 315 311 308 305 302 301 300 299 298 295 293 291 289 287 284 282 280 279 278 276 275 275 275 275 274 273 272 271 269 267 265 263 262 261 260 261 262 262 263
260 244 234 231 232 235 237 239 239 243 249 252 251 250 253 255 255 254 255 256 256 256 255 254 252 251 250 250 253 260 268 277 285 292 299 305 311 316 321 324 326 327 328 328 328 326 324 321 318 314 310 306 301 297 294 291 289 288 287 285 284 283 283 282 281 280 279 277 276 275 275 274 274 274 274 274 273 273 272 270 269 267 266 265 265 264 264
Height
5673 5673 5674 5675 5677 5678 5680 5681 5681 5680 5679 5679 5680 5681 5681 5681 5682 5683 5683 5684 5686 5684 5682 5683 5682 5682 5683 5682 5681 5682 5683 5683 5683 5683 5684 5684 5685 5686 5687 5686 5687 5687 5687 5687 5688 5689 5690 5692 5693 5694 5694 5694 5694 5694 5694 5695 5695 5695 5696 5696 5696 5696 5697 5697 5697 5697 5697 5697 5697 5698 5699 5700 5701 5701 5702 5703 5704 5705 5706 5707 5707 5707 5708 5708 5708 5708 5708
5667 5668 5669 5670 5671 5673 5674 5676 5676 5675 5674 5675 5676 5677 5677 5676 5676 5678 5677 5679 5680 5678 5677 5679 5679 5678 5679 5679 5678 5677 5677 5677 5677 5678 5679 5679 5679 5680 5681 5682 5682 5683 5683 5683 5682 5683 5683 5685 5686 5688 5688 5689 5690 5690 5690 5690 5690 5690 5691 5691 5691 5692 5692 5692 5692 5693 5693 5693 5693 5693 5694 5694 5695 5696 5697 5697 5698 5699 5700 5701 5702 5702 5703 5703 5703 5703 5703
5662 5662 5664 5664 5664 5665 5667 5669 5669 5669 5670 5671 5671 5672 5672 5672 5672 5672 5671 5673 5674 5670 5670 5673 5674 5674 5675 5676 5675 5672 5670 5670 5671 5673 5674 5675 5673 5672 5673 5676 5678 5679 5679 5679 5678 5678 5678 5679 5680 5681 5682 5683 5684 5685 5685 5685 5685 5685 5686 5686 5686 5687 5687 5687 5688 5688 5688 5688 5688 5689 5689 5689 5689 5690 5691 5691 5692 5693 5693 5694 5695 5696 5697 5697 5697 5697 5698
5656 5657 5658 5658 5658 5658 5660 5662 5663 5663 5665 5667 5666 5666 5666 5666 5667 5667 5667 5668 5666 5662 5663 5667 5668 5669 5671 5671 5669 5667 5666 5666 5666 5667 5669 5669 5669 5667 5666 5668 5671 5673 5673 5673 5674 5674 5674 5674 5675 5675 5677 5679 5679 5679 5679 5679 5679 5680 5681 5681 5681 5681 5682 5682 5682 5683 5683 5683 5683 5684 5684 5684 5685 5685 5685 5686 5686 5687 5688 5688 5688 5689 5689 5690 5691 5691 5692
5649 5651 5652 5652 5652 5654 5655 5655 5656 5657 5659 5660 5660 5660 5659 5658 5659 5661 5662 5661 5658 5655 5658 5660 5660 5662 5665 5663 5661 5661 5662 5663 5663 5663 5662 5663 5664 5664 5662 5661 5662 5665 5666 5666 5667 5669 5670 5671 5671 5670 5671 5672 5672 5672 5672 5673 5674 5675 5675 5675 5676 5676 5676 5676 5676 5677 5678 5678 5678 5678 5679 5679 5679 5679 5679 5680 5680 5680 5681 5682 5682 5683 5683 5683 5683 5684 5684
5642 5644 5646 5647 5647 5649 5650 5649 5650 5651 5651 5652 5654 5653 5652 5652 5653 5655 5655 5654 5651 5650 5651 5652 5653 5655 5657 5656 5654 5654 5656 5659 5660 5659 5658 5656 5656 5658 5657 5655 5655 5657 5659 5659 5659 5662 5665 5666 5666 5666 5665 5665 5665 5665 5667 5668 5668 5668 5669 5669 5670 5670 5670 5670 5670 5671 5671 5672 5672 5673 5673 5673 5673 5673 5673 5673 5673 5673 5674 5674 5675 5675 5676 5677 5677 5677 5678
5636 5637 5639 5641 5641 5643 5643 5643 5644 5645 5644 5646 5648 5647 5646 5648 5649 5650 5649 5648 5646 5644 5644 5645 5647 5649 5649 5648 5647 5648 5650 5653 5654 5654 5654 5651 5649 5650 5650 5649 5649 5649 5651 5652 5651 5652 5656 5658 5659 5660 5660 5659 5660 5660 5661 5662 5662 5661 5662 5663 5663 5664 5664 5664 5664 5665 5665 5665 5666 5666 5667 5667 5667 5666 5666 5666 5666 5666 5666 5667 5667 5668 5669 5669 5670 5671 5672
5630 5631 5632 5634 5635 5635 5636 5636 5637 5639 5638 5640 5642 5641 5640 5643 5644 5643 5642 5642 5641 5638 5637 5639 5642 5642 5640 5640 5642 5643 5643 5646 5647 5648 5647 5646 5644 5644 5644 5644 5644 5643 5643 5645 5644 5644 5646 5648 5649 5651 5652 5653 5654 5655 5655 5655 5655 5655 5656 5656 5656 5657 5658 5658 5658 5658 5659 5659 5659 5660 5660 5660 5660 5660 5660 5660 5660 5660 5660 5660 5660 5661 5662 5662 5664 5665 5665
5625 5626 5626 5627 5628 5628 5629 5630 5631 5633 5633 5633 5634 5633 5634 5636 5636 5635 5635 5635 5634 5632 5632 5634 5636 5635 5633 5633 5636 5636 5636 5639 5641 5639 5639 5640 5639 5639 5639 5639 5639 5639 5638 5638 5638 5637 5638 5639 5639 5642 5645 5647 5647 5648 5649 5649 5648 5649 5649 5649 5650 5650 5651 5651 5651 5652 5652 5652 5653 5653 5653 5653 5653 5653 5653 5653 5653 5653 5654 5654 5654 5655 5655 5656 5657 5658 5658
5619 5620 5619 5620 5621 5621 5623 5624 5625 5628 5627 5626 5626 5626 5626 5627 5627 5627 5628 5628 5628 5627 5627 5628 5629 5628 5627 5628 5630 5629 5629 5632 5633 5631 5631 5633 5632 5631 5632 5632 5632 5632 5633 5633 5632 5630 5631 5631 5631 5634 5638 5640 5640 5640 5641 5641 5641 5641 5642 5642 5643 5643 5643 5644 5644 5644 5645 5645 5645 5645 5645 5645 5646 5646 5646 5646 5646 5646 5647 5647 5648 5648 5649 5651 5651 5651 5650
5613 5613 5613 5613 5615 5615 5616 5617 5619 5621 5621 5619 5619 5618 5618 5619 5619 5619 5620 5621 5620 5621 5622 5622 5621 5621 5621 5622 5623 5623 5621 5623 5625 5624 5624 5625 5624 5623 5624 5624 5625 5625 5626 5626 5625 5624 5625 5625 5624 5627 5630 5632 5632 5632 5633 5633 5633 5633 5634 5634 5635 5635 5636 5636 5637 5637 5637 5637 5637 5637 5637 5637 5638 5638 5639 5639 5639 5639 5640 5640 5641 5642 5644 5644 5645 5644 5644
5608 5608 5608 5608 5608 5609 5610 5611 5612 5614 5614 5613 5612 5610 5611 5612 5611 5611 5614 5614 5613 5614 5615 5615 5614 5614 5614 5614 5616 5616 5615 5615 5616 5617 5617 5616 5616 5616 5616 5617 5618 5618 5618 5619 5618 5618 5619 5619 5619 5620 5622 5623 5623 5623 5624 5624 5625 5625 5626 5626 5627 5628 5628 5629 5629 5630 5630 5630 5629 5630 5630 5630 5631 5631 5631 5632 5632 5632 5632 5632 5633 5635 5637 5637 5637 5637 5637
5603 5603 5604 5603 5602 5602 5603 5604 5605 5607 5608 5607 5605 5604 5605 5605 5604 5604 5606 5606 5605 5606 5607 5607 5606 5606 5606 5607 5608 5609 5609 5608 5608 5609 5609 5608 5608 5609 5609 5609 5611 5611 5611 5612 5612 5611 5612 5612 5611 5612 5613 5614 5614 5615 5616 5616 5617 5617 5618 5618 5619 5620 5621 5621 5622 5622 5622 5622 5622 5622 5623 5623 5624 5624 5624 5625 5625 5625 5625 5625 5626 5628 5630 5630 5630 5630 5629
5598 5598 5598 5597 5597 5597 5597 5597 5598 5600 5601 5600 5599 5598 5598 5598 5597 5597 5598 5597 5597 5599 5599 5599 5598 5598 5599 5600 5600 5601 5601 5601 5601 5601 5601 5600 5600 5600 5601 5601 5602 5602 5602 5604 5604 5604 5603 5603 5603 5604 5605 5606 5607 5607 5608 5609 5609 5610 5610 5611 5612 5613 5613 5614 5614 5614 5614 5614 5614 5615 5615 5616 5617 5617 5617 5617 5617 5618 5618 5618 5620 5622 5623 5623 5622 5622 5622
5594 5593 5592 5592 5592 5590 5591 5592 5593 5594 5594 5592 5591 5591 5590 5589 5589 5590 5590 5589 5590 5591 5591 5591 5591 5592 5593 5593 5593 5593 5593 5593 5593 5593 5592 5592 5592 5592 5593 5593 5594 5594 5594 5595 5596 5596 5595 5595 5595 5596 5596 5598 5599 5599 5600 5601 5602 5603 5603 5604 5605 5605 5605 5606 5606 5606 5607 5607 5607 5608 5608 5609 5609 5609 5609 5609 5610 5610 5610 5611 5613 5615 5616 5616 5615 5614 5614
5588 5587 5587 5587 5585 5583 5587 5589 5587 5586 5586 5584 5584 5584 5583 5582 5581 5583 5584 5584 5584 5584 5584 5584 5584 5584 5585 5585 5585 5584 5584 5583 5584 5584 5583 5583 5583 5584 5585 5585 5585 5585 5585 5586 5587 5587 5588 5589 5588 5588 5588 5589 5591 5592 5593 5594 5595 5596 5597 5597 5597 5597 5597 5597 5598 5599 5600 5600 5601 5601 5601 5602 5602 5602 5602 5602 5603 5603 5603 5604 5606 5608 5608 5608 5608 5608 5608
5583 5583 5582 5580 5577 5577 5583 5583 5579 5578 5580 5578 5577 5578 5578 5577 5576 5577 5578 5578 5578 5577 5576 5576 5575 5574 5574 5575 5576 5576 5576 5575 5575 5575 5575 5575 5575 5575 5576 5576 5576 5576 5576 5577 5578 5579 5580 5580 5580 5580 5580 5580 5582 5584 5585 5586 5587 5588 5589 5589 5589 5588 5589 5590 5591 5592 5593 5593 5594 5594 5594 5595 5595 5596 5596 5596 5596 5596 5596 5597 5598 5600 5601 5601 5601 5601 5601
5578 5578 5575 5573 5573 5573 5575 5575 5573 5572 5573 5571 5571 5572 5572 5571 5572 5572 5572 5571 5570 5569 5568 5567 5566 5565 5565 5565 5566 5567 5568 5568 5567 5567 5567 5567 5566 5567 5567 5567 5567 5566 5567 5568 5569 5569 5570 5570 5570 5571 5571 5572 5573 5576 5578 5579 5579 5580 5579 5580 5580 5582 5583 5584 5584 5584 5585 5586 5586 5587 5587 5588 5589 5589 5589 5589 5590 5590 5589 5590 5591 5592 5593 5594 5594 5594 5594
5573 5571 5568 5569 5571 5569 5568 5569 5568 5567 5566 5566 5566 5566 5565 5564 5565 5564 5563 5563 5562 5561 5560 5559 5558 5558 5557 5557 5557 5557 5558 5558 5558 5558 5558 5558 5558 5558 5558 5558 5557 5557 5558 5559 5559 5559 5560 5561 5562 5562 5563 5565 5567 5568 5569 5570 5570 5570 5571 5571 5573 5575 5576 5576 5576 5577 5577 5578 5579 5579 5580 5581 5582 5582 5582 5583 5583 5583 5583 5583 5584 5585 5586 5587 5587 5588 5588
5568 5565 5564 5566 5567 5564 5563 5563 5563 5562 5562 5561 5560 5559 5557 5557 5556 5555 5554 5554 5553 5553 5552 5550 5550 5550 5550 5549 5548 5548 5548 5548 5548 5549 5549 5549 5549 5549 5549 5549 5549 5549 5549 5549 5549 5550 5551 5552 5553 5554 5556 5558 5560 5560 5560 5561 5561 5562 5563 5565 5566 5566 5567 5568 5569 5570 5571 5571 5572 5572 5573 5574 5575 5575 5575 5576 5577 5577 5577 5577 5578 5579 5579 5580 5581 5581 5582
5561 5560 5560 5561 5562 5560 5558 5558 5557 5556 5555 5554 5553 5553 5551 5550 5548 5547 5546 5546 5545 5544 5543 5542 5541 5542 5541 5540 5540 5540 5540 5539 5539 5539 5539 5539 5540 5540 5541 5541 5540 5540 5540 5540 5541 5542 5543 5544 5545 5546 5547 5549 5550 5551 5552 5553 5554 5555 5556 5557 5558 5558 5559 5560 5561 5562 5563 5564 5564 5565 5566 5567 5568 5569 5569 5570 5570 5570 5571 5571 5572 5572 5573 5573 5574 5575 5575
5557 5556 5556 5556 5555 5553 5552 5551 5550 5549 5547 5547 5547 5546 5544 5543 5541 5540 5539 5538 5537 5536 5535 5534 5533 5532 5532 5532 5531 5531 5531 5530 5530 5529 5529 5530 5531 5531 5531 5531 5531 5531 5531 5531 5532 5534 5535 5536 5536 5537 5538 5539 5541 5542 5544 5546 5547 5548 5549 5549 5550 5551 5551 5553 5554 5555 5556 5556 5557 5558 5559 5561 5561 5562 5563 5563 5563 5564 5564 5565 5566 5566 5566 5567 5567 5568 5568
5553 5552 5550 5549 5547 5546 5546 5545 5544 5542 5541 5540 5539 5538 5536 5535 5534 5533 5532 5531 5529 5528 5527 5526 5524 5523 5523 5522 5522 5522 5522 5521 5520 5520 5520 5521 5521 5521 5521 5521 5522 5522 5522 5522 5524 5526 5527 5527 5528 5528 5530 5531 5533 5534 5536 5538 5539 5540 5540 5541 5542 5543 5544 5545 5546 5547 5548 5549 5550 5551 5552 5554 5554 5555 5556 5556 5557 5557 5558 5558 5559 5559 5559 5560 5561 5561 5562
5547 5545 5544 5543 5541 5540 5539 5538 5536 5535 5534 5533 5532 5530 5529 5528 5527 5526 5524 5522 5521 5520 5519 5518 5516 5514 5513 5513 5513 5512 5513 5512 5512 5512 5511 5511 5512 5512 5512 5512 5512 5512 5513 5514 5516 5518 5518 5518 5519 5520 5522 5523 5524 5525 5527 5530 5531 5531 5532 5533 5534 5536 5537 5538 5539 5540 5541 5543 5543 5544 5545 5547 5547 5548 5549 5549 5550 5550 5551 5552 5552 5553 5553 5553 5554 5554 5555
5541 5540 5539 5537 5535 5534 5532 5531 5530 5528 5526 5525 5524 5523 5522 5521 5520 5518 5517 5515 5513 5513 5512 5511 5509 5507 5507 5506 5505 5505 5505 5505 5504 5504 5503 5503 5503 5503 5503 5503 5503 5504 5505 5506 5507 5509 5510 5510 5511 5513 5514 5515 5515 5517 5519 5521 5522 5523 5524 5525 5527 5529 5530 5531 5533 5534 5535 5536 5537 5538 5539 5540 5541 5542 5542 5542 5543 5543 5544 5545 5546 5546 5546 5547 5547 5548 5548
5536 5535 5534 5532 5529 5528 5526 5525 5523 5522 5520 5519 5518 5517 5516 5515 5514 5513 5511 5510 5509 5508 5507 5505 5504 5503 5502 5501 5500 5499 5499 5499 5498 5497 5497 5497 5496 5496 5496 5496 5496 5497 5498 5499 5499 5500 5501 5502 5503 5505 5507 5508 5509 5511 5513 5514 5515 5516 5517 5519 5520 5522 5523 5525 5526 5527 5528 5529 5531 5532 5533 5534 5534 5535 5535 5536 5536 5537 5538 5539 5539 5539 5540 5540 5541 5542 5543
5531 5529 5528 5526 5524 5522 5520 5519 5518 5517 5515 5515 5514 5513 5512 5511 5510 5509 5508 5507 5506 5504 5503 5501 5500 5499 5498 5496 5496 5495 5494 5493 5493 5492 5491 5491 5491 5490 5491 5491 5491 5491 5492 5492 5493 5493 5495 5495 5496 5498 5500 5501 5503 5505 5506 5507 5508 5510 5511 5513 5514 5515 5516 5518 5519 5520 5522 5523 5525 5526 5527 5527 5528 5529 5529 5530 5531 5532 5532 5533 5534 5534 5535 5535 5536 5537 5539
5525 5524 5522 5521 5519 5518 5516 5515 5514 5513 5512 5512 5511 5510 5510 5509 5508 5507 5505 5504 5503 5501 5500 5498 5496 5495 5494 5492 5491 5490 5489 5488 5487 5486 5486 5486 5485 5485 5485 5486 5486 5487 5487 5487 5488 5488 5489 5490 5491 5493 5494 5496 5498 5500 5501 5502 5503 5505 5506 5507 5508 5509 5510 5511 5512 5514 5516 5517 5519 5520 5521 5522 5522 5523 5523 5524 5526 5527 5528 5529 5530 5530 5531 5532 5533 5535 5536
5521 5519 5517 5516 5515 5514 5513 5513 5512 5511 5511 5510 5509 5508 5508 5507 5506 5504 5503 5502 5500 5498 5496 5494 5493 5491 5489 5488 5487 5485 5484 5483 5482 5481 5481 5480 5480 5480 5480 5481 5481 5482 5482 5483 5483 5484 5485 5486 5487 5488 5490 5492 5494 5495 5496 5497 5499 5500 5501 5503 5504 5505 5505 5506 5507 5509 5510 5512 5513 5514 5516 5517 5518 5519 5519 5520 5521 5523 5524 5526 5527 5528 5530 5531 5532 5534 5536
5517 5515 5514 5513 5512 5511 5511 5511 5510 5510 5509 5508 5507 5506 5506 5505 5503 5502 5501 5499 5497 5495 5493 5491 5489 5487 5485 5483 5481 5480 5478 5477 5476 5475 5475 5475 5474 5474 5474 5475 5476 5477 5478 5479 5480 5480 5481 5481 5482 5483 5485 5487 5489 5490 5491 5493 5495 5497 5498 5500 5500 5501 5501 5502 5503 5505 5506 5508 5509 5511 5513 5514 5515 5516 5517 5518 5519 5521 5522 5524 5526 5527 5529 5530 5532 5533 5534
5514 5512 5511 5510 5510 5510 5510 5509 5509 5508 5507 5506 5505 5504 5503 5502 5501 5499 5498 5496 5494 5492 5489 5487 5485 5483 5481 5479 5476 5474 5472 5470 5470 5469 5469 5468 5468 5469 5469 5470 5471 5472 5474 5475 5475 5476 5477 5478 5479 5481 5482 5483 5484 5485 5487 5490 5492 5495 5496 5497 5498 5499 5499 5500 5501 5503 5504 5506 5507 5509 5511 5512 5514 5515 5516 5517 5518 5519 5521 5523 5525 5527 5528 5529 5531 5532 5533
5511 5510 5509 5509 5508 5508 5508 5508 5507 5506 5505 5504 5503 5502 5501 5500 5499 5497 5495 5494 5491 5489 5487 5484 5482 5480 5477 5475 5472 5469 5467 5465 5463 5463 5463 5463 5463 5463 5464 5465 5467 5468 5470 5471 5472 5473 5475 5476 5478 5479 5480 5481 5482 5483 5486 5489 5491 5493 5495 5496 5497 5498 5498 5499 5501 5503 5504 5505 5506 5508 5510 5511 5513 5515 5516 5517 5518 5519 5521 5523 5524 5525 5527 5528 5529 5531 5532
5509 5509 5508 5508 5507 5507 5507 5506 5505 5504 5503 5502 5501 5500 5499 5498 5497 5495 5494 5492 5490 5488 5485 5483 5481 5478 5476 5472 5469 5466 5463 5461 5459 5458 5458 5458 5458 5459 5460 5461 5463 5465 5467 5468 5470 5471 5473 5475 5476 5478 5479 5480 5481 5483 5486 5489 5491 5492 5493 5494 5495 5496 5497 5498 5500 5502 5504 5505 5506 5508 5509 5511 5513 5514 5516 5517 5518 5519 5521 5522 5523 5524 5525 5527 5528 5530 5531
5508 5508 5507 5507 5506 5506 5505 5504 5503 5502 5501 5501 5500 5499 5498 5496 5495 5494 5492 5491 5489 5487 5485 5482 5480 5478 5475 5471 5467 5464 5461 5459 5458 5457 5456 5456 5456 5457 5457 5459 5461 5464 5466 5467 5469 5471 5472 5474 5476 5477 5478 5480 5482 5484 5487 5489 5490 5491 5492 5494 5495 5496 5497 5498 5500 5501 5503 5505 5506 5508 5509 5511 5512 5514 5515 5516 5517 5518 5519 5520 5522 5523 5524 5526 5527 5529 5530
5507 5507 5507 5506 5505 5505 5504 5503 5502 5501 5500 5499 5498 5497 5496 5495 5494 5492 5491 5490 5489 5487 5485 5483 5481 5479 5476 5472 5468 5465 5462 5461 5459 5458 5458 5457 5457 5457 5457 5459 5461 5464 5466 5467 5469 5470 5472 5474 5476 5477 5479 5481 5483 5485 5487 5489 5490 5492 5493 5494 5495 5496 5497 5498 5500 5501 5503 5505 5506 5507 5509 5510 5511 5513 5514 5515 5516 5517 5518 5520 5521 5522 5524 5525 5527 5528 5530
5506 5506 5505 5505 5504 5503 5502 5501 5500 5500 5499 5498 5497 5496 5495 5494 5493 5492 5491 5490 5488 5487 5485 5483 5482 5480 5478 5474 5470 5466 5465 5463 5462 5461 5460 5460 5459 5459 5460 5461 5463 5465 5467 5468 5470 5471 5473 5475 5477 5479 5481 5483 5485 5486 5488 5490 5491 5492 5493 5494 5495 5496 5497 5499 5500 5501 5502 5504 5505 5507 5508 5509 5510 5511 5512 5513 5515 5516 5517 5519 5520 5522 5523 5525 5526 5528 5530
5505 5505 5504 5504 5503 5502 5501 5500 5499 5499 5498 5497 5497 5496 5495 5493 5492 5491 5490 5489 5488 5487 5485 5484 5483 5482 5479 5476 5472 5469 5467 5466 5465 5465 5464 5464 5464 5464 5464 5465 5467 5468 5470 5471 5473 5474 5476 5478 5479 5481 5483 5484 5486 5488 5489 5491 5492 5493 5494 5495 5496 5497 5497 5498 5500 5501 5502 5503 5504 5506 5507 5508 5509 5510 5511 5512 5513 5515 5516 5518 5520 5521 5523 5525 5526 5528 5529
5504 5504 5503 5502 5502 5501 5500 5499 5499 5498 5497 5497 5496 5495 5494 5493 5492 5491 5491 5489 5488 5487 5486 5485 5485 5483 5481 5478 5476 5473 5470 5469 5469 5469 5468 5468 5468 5469 5469 5470 5471 5472 5473 5474 5475 5477 5478 5480 5481 5483 5484 5486 5488 5490 5491 5492 5493 5494 5495 5495 5496 5497 5497 5498 5499 5501 5502 5503 5504 5505 5506 5507 5508 5509 5511 5512 5513 5515 5516 5518 5520 5521 5523 5525 5527 5528 5529
5503 5502 5502 5501 5501 5500 5499 5499 5498 5498 5497 5496 5496 5495 5494 5493 5492 5492 5491 5490 5489 5488 5487 5487 5486 5485 5483 5481 5479 5477 5474 5472 5471 5472 5472 5472 5473 5473 5473 5474 5474 5475 5476 5477 5478 5479 5481 5482 5483 5485 5487 5488 5490 5492 5493 5493 5494 5494 5495 5495 5496 5497 5498 5499 5500 5501 5502 5503 5505 5506 5507 5508 5509 5510 5511 5513 5514 5516 5517 5519 5520 5522 5524 5525 5526 5527 5529
5502 5501 5501 5500 5500 5500 5499 5498 5498 5497 5497 5496 5496 5495 5494 5494 5493 5493 5492 5492 5491 5490 5489 5488 5487 5486 5485 5484 5482 5480 5478 5476 5474 5475 5475 5476 5476 5476 5477 5477 5478 5478 5479 5480 5481 5483 5484 5485 5487 5488 5490 5492 5493 5494 5494 5494 5495 5495 5495 5496 5497 5498 5498 5499 5501 5502 5503 5504 5505 5506 5507 5508 5510 5511 5512 5514 5515 5516 5518 5519 5521 5522 5523 5525 5526 5527 5528
5501 5500 5500 5500 5499 5499 5498 5498 5497 5497 5497 5496 5496 5495 5495 5495 5494 5494 5493 5493 5492 5491 5490 5489 5489 5488 5487 5487 5485 5484 5482 5481 5479 5478 5479 5480 5480 5481 5481 5481 5482 5482 5483 5484 5486 5487 5488 5489 5490 5492 5493 5494 5495 5495 5495 5496 5496 5496 5497 5497 5498 5499 5500 5501 5502 5503 5504 5505 5506 5507 5508 5509 5510 5511 5513 5514 5516 5517 5518 5519 5521 5522 5523 5524 5525 5526 5527
5500 5499 5499 5499 5499 5498 5498 5498 5497 5497 5497 5496 5496 5495 5495 5495 5495 5495 5494 5494 5493 5492 5492 5491 5490 5489 5489 5488 5488 5487 5487 5486 5485 5484 5483 5484 5485 5485 5486 5486 5486 5487 5488 5489 5489 5490 5492 5493 5494 5495 5496 5496 5497 5497 5497 5497 5498 5498 5498 5499 5500 5500 5501 5502 5503 5504 5505 5506 5507 5507 5508 5509 5511 5512 5513 5514 5516 5517 5518 5519 5520 5521 5522 5523 5524 5525 5526
5498 5498 5498 5498 5498 5498 5498 5498 5497 5497 5497 5496 5496 5496 5496 5496 5496 5495 5495 5494 5494 5493 5493 5492 5491 5491 5490 5490 5490 5490 5489 5489 5489 5488 5488 5488 5488 5489 5489 5490 5490 5490 5491 5492 5492 5493 5494 5495 5496 5497 5498 5498 5498 5499 5499 5499 5500 5500 5500 5501 5502 5502 5503 5503 5504 5505 5506 5506 5507 5508 5509 5510 5511 5512 5513 5514 5515 5517 5518 5519 5520 5521 5522 5522 5523 5524 5524
5497 5497 5498 5498 5498 5498 5498 5498 5498 5497 5497 5497 5497 5497 5497 5497 5497 5496 5496 5496 5495 5494 5494 5493 5493 5492 5492 5491 5491 5491 5491 5491 5491 5491 5491 5491 5491 5491 5492 5492 5493 5493 5493 5494 5495 5495 5496 5497 5498 5499 5499 5499 5499 5500 5501 5501 5502 5502 5502 5503 5503 5504 5505 5505 5506 5506 5507 5507 5508 5509 5509 5510 5511 5512 5513 5514 5515 5516 5517 5518 5519 5520 5520 5521 5522 5522 5523
5495 5496 5497 5497 5497 5497 5498 5497 5497 5497 5497 5497 5497 5497 5497 5497 5497 5497 5497 5497 5496 5496 5495 5495 5494 5494 5494 5493 5493 5493 5493 5493 5492 5493 5493 5493 5493 5493 5494 5494 5494 5495 5495 5496 5496 5497 5497 5498 5499 5499 5500 5500 5500 5501 5502 5502 5503 5503 5504 5504 5505 5505 5506 5506 5507 5507 5507 5508 5508 5509 5509 5510 5511 5512 5512 5513 5514 5515 5516 5517 5517 5518 5519 5519 5520 5520 5521
5494 5495 5495 5496 5496 5497 5497 5497 5497 5497 5497 5497 5498 5498 5498 5498 5497 5497 5497 5497 5497 5497 5496 5496 5496 5495 5495 5495 5495 5495 5495 5494 5494 5494 5494 5494 5495 5495 5495 5495 5495 5496 5496 5497 5497 5498 5498 5499 5499 5500 5500 5500 5501 5501 5502 5502 5503 5503 5504 5504 5505 5505 5506 5506 5507 5507 5507 5508 5508 5509 5509 5510 5510 5511 5512 5512 5513 5514 5514 5515 5516 5516 5517 5518 5518 5518 5519
5492 5493 5493 5494 5495 5495 5496 5496 5496 5497 5497 5497 5498 5498 5498 5498 5498 5498 5498 5498 5498 5498 5498 5497 5497 5497 5496 5496 5496 5496 5496 5496 5496 5496 5496 5496 5496 5496 5496 5496 5496 5496 5497 5497 5498 5498 5498 5499 5499 5500 5500 5500 5501 5501 5501 5502 5502 5502 5503 5503 5504 5504 5505 5505 5506 5506 5507 5507 5507 5508 5509 5509 5509 5510 5510 5511 5511 5512 5513 5513 5514 5514 5515 5515 5516 5516 5516
5489 5490 5491 5492 5493 5493 5494 5494 5495 5495 5496 5497 5497 5497 5498 5498 5498 5498 5498 5498 5498 5498 5498 5498 5498 5498 5497 5497 5497 5497 5497 5497 5497 5497 5497 5497 5497 5497 5497 5497 5498 5498 5498 5498 5498 5498 5499 5499 5499 5499 5500 5500 5500 5500 5501 5501 5501 5501 5502 5502 5502 5503 5503 5504 5504 5505 5505 5505 5506 5506 5507 5507 5508 5508 5509 5509 5510 5510 5511 5511 5511 5512 5512 5512 5513 5513 5513
5486 5487 5488 5489 5490 5491 5492 5492 5493 5493 5494 5495 5495 5496 5496 5497 5497 5497 5498 5498 5498 5498 5498 5498 5498 5498 5498 5497 5497 5497 5497 5497 5497 5497 5497 5497 5497 5497 5497 5497 5498 5498 5498 5498 5499 5499 5499 5499 5499 5499 5499 5499 5499 5500 5500 5500 5500 5500 5501 5501 5501 5501 5502 5502 5502 5503 5503 5504 5504 5504 5505 5505 5506 5506 5507 5507 5508 5508 5508 5508 5509 5509 5509 5510 5510 5510 5510
5483 5484 5485 5486 5487 5488 5489 5490 5490 5491 5492 5493 5493 5494 5495 5495 5496 5496 5496 5497 5497 5497 5497 5497 5497 5497 5497 5497 5497 5497 5497 5497 5497 5497 5497 5497 5497 5497 5497 5497 5497 5497 5497 5498 5498 5498 5499 5499 5499 5499 5499 5499 5499 5499 5499 5499 5499 5499 5499 5500 5500 5500 5500 5501 5501 5501 5501 5502 5502 5502 5503 5503 5503 5504 5504 5505 5505 5505 5505 5506 5506 5506 5506 5506 5507 5507 5507
5480 5481 5482 5482 5483 5485 5486 5487 5488 5488 5489 5490 5491 5492 5492 5493 5494 5494 5494 5495 5495 5496 5496 5496 5496 5496 5496 5496 5496 5496 5497 5497 5497 5496 5497 5497 5497 5496 5496 5496 5496 5496 5496 5496 5496 5496 5497 5497 5497 5497 5497 5497 5498 5498 5498 5498 5498 5498 5498 5498 5498 5498 5498 5499 5499 5499 5499 5500 5500 5500 5500 5501 5501 5501 5502 5502 5502 5502 5503 5503 5503 5503 5503 5503 5503 5503 5503
5477 5477 5478 5479 5480 5481 5482 5483 5485 5486 5486 5487 5488 5489 5490 5490 5491 5492 5492 5493 5493 5494 5494 5494 5495 5495 5495 5495 5495 5495 5495 5495 5495 5495 5496 5496 5496 5496 5496 5495 5495 5495 5495 5495 5495 5495 5494 5494 5494 5494 5495 5495 5495 5495 5495 5495 5495 5495 5495 5495 5495 5495 5496 5496 5496 5496 5496 5497 5497 5497 5497 5497 5498 5498 5498 5498 5499 5499 5499 5499 5499 5499 5499 5500 5500 5500 5500